Time,TemperatureF,DewpointF,PressureIn,WindDirection,WindDirectionDegrees,WindSpeedMPH,WindSpeedGustMPH,Humidity,HourlyPrecipIn,Conditions,Clouds,dailyrainin,SoftwareType,DateUTC
2013-06-27 00:08:00,73.8,71.0,29.71,NE,34,0.0,3.0,91,0.00,,,0.00,weatherlink.com 1.10,2013-06-27 05:08:00,
2013-06-27 00:23:00,73.3,71.0,29.71,NE,37,2.0,4.0,92,0.00,,,0.00,weatherlink.com 1.10,2013-06-27 05:23:00,
2013-06-27 00:38:00,72.9,71.0,29.71,North,5,1.0,4.0,93,0.00,,,0.00,weatherlink.com 1.10,2013-06-27 05:38:00,
2013-06-27 00:53:00,72.6,71.0,29.71,North,5,0.0,3.0,93,0.00,,,0.00,weatherlink.com 1.10,2013-06-27 05:53:00,
2013-06-27 01:08:00,72.5,70.0,29.70,North,5,0.0,2.0,93,0.00,,,0.00,weatherlink.com 1.10,2013-06-27 06:08:00,
2013-06-27 01:23:00,72.4,70.0,29.71,North,5,1.0,3.0,93,0.00,,,0.00,weatherlink.com 1.10,2013-06-27 06:23:00,
2013-06-27 01:38:00,72.2,70.0,29.70,North,5,3.0,4.0,93,0.00,,,0.00,weatherlink.com 1.10,2013-06-27 06:38:00,
2013-06-27 01:53:00,72.2,70.0,29.70,NNW,340,4.0,5.0,94,0.00,,,0.00,weatherlink.com 1.10,2013-06-27 06:53:00,
2013-06-27 02:08:00,72.3,71.0,29.71,NNW,334,3.0,5.0,94,0.00,,,0.00,weatherlink.com 1.10,2013-06-27 07:08:00,
2013-06-27 02:23:00,72.4,70.0,29.71,North,355,4.0,6.0,93,0.00,,,0.00,weatherlink.com 1.10,2013-06-27 07:23:00,
2013-06-27 02:38:00,72.1,70.0,29.71,North,360,2.0,4.0,93,0.00,,,0.00,weatherlink.com 1.10,2013-06-27 07:38:00,
2013-06-27 02:54:00,71.8,69.0,29.70,NE,46,0.0,4.0,92,0.00,,,0.00,weatherlink.com 1.10,2013-06-27 07:54:00,
2013-06-27 03:09:00,71.6,69.0,29.70,ENE,57,0.0,3.0,92,0.00,,,0.00,weatherlink.com 1.10,2013-06-27 08:09:00,
2013-06-27 03:24:00,71.4,69.0,29.71,NNW,346,5.0,5.0,93,0.00,,,0.00,weatherlink.com 1.10,2013-06-27 08:24:00,
2013-06-27 03:39:00,71.3,69.0,29.72,North,360,5.0,7.0,92,0.00,,,0.00,weatherlink.com 1.10,2013-06-27 08:39:00,
2013-06-27 03:54:00,71.3,69.0,29.72,North,360,4.0,8.0,91,0.00,,,0.00,weatherlink.com 1.10,2013-06-27 08:54:00,
2013-06-27 04:09:00,71.3,69.0,29.72,North,5,2.0,6.0,91,0.00,,,0.00,weatherlink.com 1.10,2013-06-27 09:09:00,
2013-06-27 04:24:00,71.1,68.0,29.72,NE,40,2.0,4.0,91,0.00,,,0.00,weatherlink.com 1.10,2013-06-27 09:24:00,
2013-06-27 04:39:00,70.8,68.0,29.72,NNE,32,3.0,4.0,91,0.00,,,0.00,weatherlink.com 1.10,2013-06-27 09:39:00,
2013-06-27 04:54:00,70.5,68.0,29.72,NW,316,2.0,5.0,92,0.00,,,0.00,weatherlink.com 1.10,2013-06-27 09:54:00,
2013-06-27 05:09:00,70.1,68.0,29.73,NNW,329,1.0,3.0,92,0.00,,,0.00,weatherlink.com 1.10,2013-06-27 10:09:00,
2013-06-27 05:24:00,69.5,67.0,29.73,NW,324,0.0,4.0,92,0.00,,,0.00,weatherlink.com 1.10,2013-06-27 10:24:00,
2013-06-27 05:39:00,69.1,67.0,29.73,NW,306,0.0,4.0,93,0.00,,,0.00,weatherlink.com 1.10,2013-06-27 10:39:00,
2013-06-27 05:54:00,68.7,67.0,29.73,NW,323,3.0,3.0,93,0.00,,,0.00,weatherlink.com 1.10,2013-06-27 10:54:00,
2013-06-27 06:09:00,68.6,67.0,29.74,NW,321,1.0,3.0,94,0.00,,,0.00,weatherlink.com 1.10,2013-06-27 11:09:00,
2013-06-27 06:24:00,68.7,67.0,29.74,NW,321,0.0,2.0,94,0.00,,,0.00,weatherlink.com 1.10,2013-06-27 11:24:00,
2013-06-27 06:39:00,68.8,67.0,29.74,East,84,1.0,2.0,94,0.00,,,0.00,weatherlink.com 1.10,2013-06-27 11:39:00,
2013-06-27 06:54:00,69.0,68.0,29.74,North,360,3.0,7.0,95,0.00,,,0.00,weatherlink.com 1.10,2013-06-27 11:54:00,
2013-06-27 07:09:00,68.9,68.0,29.74,North,355,2.0,6.0,95,0.00,,,0.00,weatherlink.com 1.10,2013-06-27 12:09:00,
2013-06-27 07:24:00,68.4,67.0,29.74,NNW,346,2.0,5.0,96,0.00,,,0.00,weatherlink.com 1.10,2013-06-27 12:24:00,
2013-06-27 07:39:00,68.7,68.0,29.74,NNE,15,1.0,5.0,96,0.00,,,0.00,weatherlink.com 1.10,2013-06-27 12:39:00,
2013-06-27 07:54:00,69.2,68.0,29.74,NE,42,0.0,5.0,96,0.00,,,0.00,weatherlink.com 1.10,2013-06-27 12:54:00,
2013-06-27 08:09:00,70.1,69.0,29.74,NNE,17,3.0,3.0,96,0.00,,,0.00,weatherlink.com 1.10,2013-06-27 13:09:00,
2013-06-27 08:24:00,71.1,70.0,29.74,NE,52,2.0,4.0,96,0.00,,,0.00,weatherlink.com 1.10,2013-06-27 13:24:00,
2013-06-27 08:39:00,72.1,70.0,29.74,NNE,32,4.0,7.0,92,0.00,,,0.00,weatherlink.com 1.10,2013-06-27 13:39:00,
2013-06-27 08:54:00,73.3,70.0,29.74,NNW,345,5.0,6.0,90,0.00,,,0.00,weatherlink.com 1.10,2013-06-27 13:54:00,
2013-06-27 09:09:00,74.7,71.0,29.74,NNW,329,0.0,4.0,88,0.00,,,0.00,weatherlink.com 1.10,2013-06-27 14:09:00,
2013-06-27 09:24:00,75.2,71.0,29.74,NNW,334,3.0,7.0,85,0.00,,,0.00,weatherlink.com 1.10,2013-06-27 14:24:00,
2013-06-27 09:39:00,75.2,71.0,29.74,North,10,4.0,7.0,85,0.00,,,0.00,weatherlink.com 1.10,2013-06-27 14:39:00,
2013-06-27 09:54:00,75.5,71.0,29.74,WNW,294,4.0,9.0,85,0.00,,,0.00,weatherlink.com 1.10,2013-06-27 14:54:00,
2013-06-27 10:09:00,75.7,71.0,29.73,West,279,0.0,8.0,85,0.00,,,0.00,weatherlink.com 1.10,2013-06-27 15:09:00,
2013-06-27 10:24:00,76.8,72.0,29.74,WNW,286,5.0,8.0,84,0.00,,,0.00,weatherlink.com 1.10,2013-06-27 15:24:00,
2013-06-27 10:39:00,77.0,72.0,29.72,SW,228,1.0,8.0,85,0.00,,,0.00,weatherlink.com 1.10,2013-06-27 15:39:00,
2013-06-27 10:54:00,77.6,72.0,29.72,NNE,19,2.0,7.0,82,0.00,,,0.00,weatherlink.com 1.10,2013-06-27 15:54:00,
2013-06-27 11:09:00,77.4,70.0,29.72,SW,218,1.0,7.0,79,0.00,,,0.00,weatherlink.com 1.10,2013-06-27 16:09:00,
2013-06-27 11:24:00,77.6,70.0,29.71,WNW,296,3.0,6.0,77,0.00,,,0.00,weatherlink.com 1.10,2013-06-27 16:24:00,
2013-06-27 11:40:00,80.2,69.0,29.71,NW,308,2.0,6.0,68,0.00,,,0.00,weatherlink.com 1.10,2013-06-27 16:40:00,
2013-06-27 11:55:00,82.6,68.0,29.71,West,264,1.0,9.0,62,0.00,,,0.00,weatherlink.com 1.10,2013-06-27 16:55:00,
2013-06-27 12:10:00,83.5,70.0,29.71,SW,214,3.0,8.0,63,0.00,,,0.00,weatherlink.com 1.10,2013-06-27 17:10:00,
2013-06-27 12:25:00,83.7,68.0,29.71,North,350,4.0,9.0,59,0.00,,,0.00,weatherlink.com 1.10,2013-06-27 17:25:00,
2013-06-27 12:40:00,85.2,67.0,29.71,West,281,5.0,6.0,55,0.00,,,0.00,weatherlink.com 1.10,2013-06-27 17:40:00,
2013-06-27 12:55:00,85.3,65.0,29.71,WNW,286,3.0,9.0,51,0.00,,,0.00,weatherlink.com 1.10,2013-06-27 17:55:00,
2013-06-27 13:10:00,87.0,66.0,29.70,SW,235,5.0,11.0,50,0.00,,,0.00,weatherlink.com 1.10,2013-06-27 18:10:00,
2013-06-27 13:25:00,86.8,64.0,29.70,WNW,289,3.0,13.0,47,0.00,,,0.00,weatherlink.com 1.10,2013-06-27 18:25:00,
2013-06-27 13:40:00,87.3,65.0,29.69,NNE,15,8.0,12.0,48,0.00,,,0.00,weatherlink.com 1.10,2013-06-27 18:40:00,
2013-06-27 13:55:00,86.0,66.0,29.69,NW,325,5.0,11.0,51,0.00,,,0.00,weatherlink.com 1.10,2013-06-27 18:55:00,
2013-06-27 14:10:00,85.6,66.0,29.67,WSW,252,1.0,9.0,52,0.00,,,0.00,weatherlink.com 1.10,2013-06-27 19:10:00,
2013-06-27 14:25:00,85.2,66.0,29.67,SSW,202,2.0,9.0,52,0.00,,,0.00,weatherlink.com 1.10,2013-06-27 19:25:00,
2013-06-27 14:40:00,81.5,67.0,29.68,SW,229,7.0,18.0,61,0.00,,,0.00,weatherlink.com 1.10,2013-06-27 19:40:00,
2013-06-27 14:55:00,77.9,65.0,29.67,WNW,286,5.0,17.0,64,0.00,,,0.00,weatherlink.com 1.10,2013-06-27 19:55:00,
2013-06-27 15:10:00,79.2,69.0,29.67,NE,38,2.0,7.0,71,0.01,,,0.01,weatherlink.com 1.10,2013-06-27 20:10:00,
2013-06-27 15:25:00,78.8,71.0,29.67,West,266,5.0,7.0,78,0.02,,,0.02,weatherlink.com 1.10,2013-06-27 20:25:00,
2013-06-27 15:55:00,82.5,72.0,29.65,NW,311,4.0,8.0,71,0.02,,,0.02,weatherlink.com 1.10,2013-06-27 20:55:00,
2013-06-27 16:10:00,84.8,71.0,29.64,NW,319,4.0,7.0,63,0.01,,,0.02,weatherlink.com 1.10,2013-06-27 21:10:00,
2013-06-27 16:25:00,85.7,67.0,29.64,NNW,343,6.0,15.0,53,0.01,,,0.03,weatherlink.com 1.10,2013-06-27 21:25:00,
2013-06-27 16:40:00,85.3,65.0,29.64,NNW,343,10.0,23.0,51,0.01,,,0.03,weatherlink.com 1.10,2013-06-27 21:40:00,
2013-06-27 16:55:00,86.2,63.0,29.64,NNW,332,16.0,22.0,46,0.01,,,0.03,weatherlink.com 1.10,2013-06-27 21:55:00,
2013-06-27 17:10:00,86.3,63.0,29.64,North,355,15.0,18.0,46,0.01,,,0.03,weatherlink.com 1.10,2013-06-27 22:10:00,
2013-06-27 17:25:00,85.9,62.0,29.64,North,360,19.0,23.0,45,0.00,,,0.03,weatherlink.com 1.10,2013-06-27 22:25:00,
2013-06-27 17:40:00,85.7,61.0,29.64,WNW,299,8.0,24.0,44,0.00,,,0.03,weatherlink.com 1.10,2013-06-27 22:40:00,
2013-06-27 17:55:00,85.6,60.0,29.64,NNE,21,13.0,27.0,42,0.00,,,0.03,weatherlink.com 1.10,2013-06-27 22:55:00,
2013-06-27 18:25:00,85.7,60.0,29.65,NNE,12,16.0,25.0,42,0.00,,,0.03,weatherlink.com 1.10,2013-06-27 23:25:00,
2013-06-27 18:40:00,85.4,60.0,29.65,North,355,16.0,24.0,43,0.00,,,0.03,weatherlink.com 1.10,2013-06-27 23:40:00,
2013-06-27 18:55:00,84.8,61.0,29.65,NW,306,9.0,21.0,45,0.00,,,0.03,weatherlink.com 1.10,2013-06-27 23:55:00,
2013-06-27 19:10:00,84.9,61.0,29.65,NNW,340,10.0,15.0,45,0.00,,,0.03,weatherlink.com 1.10,2013-06-28 00:10:00,
2013-06-27 19:25:00,84.5,62.0,29.66,North,351,5.0,14.0,47,0.00,,,0.03,weatherlink.com 1.10,2013-06-28 00:25:00,
2013-06-27 19:40:00,83.3,62.0,29.66,North,360,13.0,17.0,48,0.00,,,0.03,weatherlink.com 1.10,2013-06-28 00:40:00,
2013-06-27 19:55:00,83.0,61.0,29.66,North,5,9.0,19.0,47,0.00,,,0.03,weatherlink.com 1.10,2013-06-28 00:55:00,
2013-06-27 20:40:00,80.6,61.0,29.66,North,5,7.0,11.0,51,0.00,,,0.03,weatherlink.com 1.10,2013-06-28 01:40:00,
2013-06-27 20:55:00,79.6,61.0,29.67,North,11,6.0,9.0,53,0.00,,,0.03,weatherlink.com 1.10,2013-06-28 01:55:00,
2013-06-27 21:10:00,78.8,62.0,29.67,North,355,7.0,10.0,56,0.00,,,0.03,weatherlink.com 1.10,2013-06-28 02:10:00,
2013-06-27 21:25:00,77.8,62.0,29.67,North,355,6.0,9.0,58,0.00,,,0.03,weatherlink.com 1.10,2013-06-28 02:25:00,
2013-06-27 21:55:00,76.8,62.0,29.68,NNE,12,7.0,8.0,60,0.00,,,0.03,weatherlink.com 1.10,2013-06-28 02:55:00,
2013-06-27 22:25:00,75.7,63.0,29.69,ESE,107,7.0,10.0,65,0.00,,,0.03,weatherlink.com 1.10,2013-06-28 03:25:00,
2013-06-27 22:55:00,74.1,63.0,29.69,ESE,115,0.0,2.0,68,0.00,,,0.03,weatherlink.com 1.10,2013-06-28 03:55:00,
2013-06-27 23:10:00,73.7,63.0,29.68,SSE,151,1.0,2.0,69,0.00,,,0.03,weatherlink.com 1.10,2013-06-28 04:10:00,
2013-06-27 23:25:00,73.2,63.0,29.68,SSE,165,1.0,3.0,71,0.00,,,0.03,weatherlink.com 1.10,2013-06-28 04:25:00,
2013-06-27 23:40:00,72.5,63.0,29.68,South,169,0.0,1.0,73,0.00,,,0.03,weatherlink.com 1.10,2013-06-28 04:40:00,
2013-06-27 23:55:00,71.5,63.0,29.68,NW,309,0.0,2.0,74,0.00,,,0.03,weatherlink.com 1.10,2013-06-28 04:55:00,